Hourly Weather Golabki

Today, 18 May, Tuesday

Time Temperature Precipitation Wind Pressure Humidity
00:00 +13°C° 0 mm 2 mps 738 mmHg 75%
01:00 +12°C° 0 mm 1 mps 737 mmHg 76%
02:00 +12°C° 0 mm 1 mps 737 mmHg 77%
03:00 +12°C° 0 mm 1 mps 737 mmHg 78%
04:00 +12°C° 0 mm 1 mps 737 mmHg 79%
05:00 +13°C° 0 mm 1 mps 737 mmHg 78%
06:00 +14°C° 0 mm 2 mps 738 mmHg 77%
07:00 +14°C° 0 mm 3 mps 738 mmHg 77%
08:00 +16°C° 0.1 mm 3 mps 738 mmHg 74%
09:00 +17°C° 0.1 mm 4 mps 738 mmHg 72%
10:00 +17°C° 0.1 mm 5 mps 738 mmHg 70%
11:00 +17°C° 0.5 mm 5 mps 738 mmHg 70%
12:00 +17°C° 0.5 mm 6 mps 738 mmHg 71%
13:00 +17°C° 0.5 mm 6 mps 738 mmHg 71%
14:00 +16°C° 0.4 mm 6 mps 738 mmHg 74%
15:00 +16°C° 0.4 mm 6 mps 738 mmHg 77%
16:00 +15°C° 0.4 mm 6 mps 739 mmHg 79%
17:00 +14°C° 0.2 mm 6 mps 739 mmHg 81%
18:00 +13°C° 0.2 mm 6 mps 739 mmHg 82%
19:00 +11°C° 0.2 mm 6 mps 739 mmHg 83%
20:00 +11°C° 0 mm 6 mps 740 mmHg 84%
21:00 +10°C° 0 mm 6 mps 740 mmHg 85%
22:00 +10°C° 0 mm 6 mps 740 mmHg 86%
23:00 +9°C° 0 mm 5 mps 740 mmHg 87%

Tomorrow, 19 May, Wednesday

Time Temperature Precipitation Wind Pressure Humidity
00:00 +9°C° 0 mm 5 mps 740 mmHg 88%
01:00 +9°C° 0 mm 5 mps 740 mmHg 89%
02:00 +8°C° 0 mm 5 mps 741 mmHg 89%
03:00 +7°C° 0 mm 5 mps 741 mmHg 90%
04:00 +7°C° 0 mm 5 mps 741 mmHg 91%
05:00 +8°C° 0 mm 5 mps 742 mmHg 87%
06:00 +9°C° 0 mm 6 mps 742 mmHg 82%
07:00 +10°C° 0 mm 6 mps 742 mmHg 78%
08:00 +11°C° 0 mm 6 mps 743 mmHg 74%
09:00 +13°C° 0 mm 5 mps 743 mmHg 70%
10:00 +14°C° 0 mm 5 mps 743 mmHg 67%
11:00 +14°C° 0 mm 5 mps 743 mmHg 69%
12:00 +14°C° 0 mm 5 mps 743 mmHg 71%
13:00 +14°C° 0 mm 5 mps 743 mmHg 74%
14:00 +14°C° 0.1 mm 4 mps 743 mmHg 72%
15:00 +14°C° 0.1 mm 4 mps 743 mmHg 69%
16:00 +15°C° 0.1 mm 4 mps 743 mmHg 67%
17:00 +14°C° 0.1 mm 3 mps 744 mmHg 73%
18:00 +12°C° 0.1 mm 3 mps 744 mmHg 79%
19:00 +12°C° 0.1 mm 2 mps 744 mmHg 85%
20:00 +10°C° 0 mm 2 mps 744 mmHg 88%
21:00 +10°C° 0 mm 3 mps 744 mmHg 91%
22:00 +9°C° 0 mm 3 mps 744 mmHg 93%
23:00 +8°C° 0 mm 3 mps 744 mmHg 94%

Day after tomorrow, 20 May, Thursday

Time Temperature Precipitation Wind Pressure Humidity
00:00 +8°C° 0 mm 3 mps 744 mmHg 95%
01:00 +7°C° 0 mm 3 mps 744 mmHg 96%
02:00 +7°C° 0 mm 3 mps 745 mmHg 95%
03:00 +7°C° 0 mm 3 mps 745 mmHg 94%
04:00 +5°C° 0 mm 3 mps 745 mmHg 93%
05:00 +6°C° 0 mm 4 mps 745 mmHg 87%
06:00 +7°C° 0 mm 4 mps 746 mmHg 81%
07:00 +8°C° 0 mm 4 mps 746 mmHg 75%
08:00 +10°C° 0 mm 5 mps 746 mmHg 70%
09:00 +12°C° 0 mm 5 mps 746 mmHg 66%
10:00 +14°C° 0 mm 5 mps 746 mmHg 61%
11:00 +14°C° 0 mm 5 mps 746 mmHg 58%
12:00 +15°C° 0 mm 6 mps 746 mmHg 56%
13:00 +16°C° 0 mm 6 mps 745 mmHg 53%
14:00 +15°C° 0 mm 5 mps 745 mmHg 58%
15:00 +15°C° 0 mm 5 mps 746 mmHg 62%
16:00 +14°C° 0 mm 5 mps 746 mmHg 67%
17:00 +13°C° 0 mm 5 mps 746 mmHg 70%
18:00 +12°C° 0 mm 4 mps 746 mmHg 74%
19:00 +11°C° 0 mm 4 mps 746 mmHg 77%
20:00 +10°C° 0 mm 4 mps 746 mmHg 80%
21:00 +8°C° 0 mm 4 mps 747 mmHg 83%
22:00 +7°C° 0 mm 4 mps 747 mmHg 86%
23:00 +7°C° 0 mm 4 mps 747 mmHg 86%

21 May, Friday

Time Temperature Precipitation Wind Pressure Humidity
00:00 +6°C° 0 mm 4 mps 748 mmHg 86%
01:00 +5°C° 0 mm 4 mps 748 mmHg 86%
02:00 +5°C° 0 mm 4 mps 748 mmHg 88%
03:00 +4°C° 0 mm 3 mps 748 mmHg 89%
04:00 +4°C° 0 mm 3 mps 748 mmHg 91%
05:00 +5°C° 0 mm 4 mps 749 mmHg 83%
06:00 +7°C° 0 mm 5 mps 749 mmHg 76%
07:00 +8°C° 0 mm 5 mps 749 mmHg 68%
08:00 +9°C° 0 mm 5 mps 749 mmHg 63%
09:00 +11°C° 0 mm 6 mps 749 mmHg 58%
10:00 +13°C° 0 mm 6 mps 749 mmHg 53%
11:00 +13°C° 0 mm 6 mps 749 mmHg 52%
12:00 +14°C° 0 mm 6 mps 748 mmHg 51%
13:00 +14°C° 0 mm 6 mps 748 mmHg 50%
14:00 +14°C° 0 mm 5 mps 748 mmHg 52%
15:00 +14°C° 0 mm 5 mps 748 mmHg 54%
16:00 +13°C° 0 mm 4 mps 748 mmHg 56%
17:00 +12°C° 0 mm 3 mps 748 mmHg 62%
18:00 +11°C° 0 mm 3 mps 748 mmHg 69%
19:00 +10°C° 0 mm 2 mps 747 mmHg 75%
20:00 +9°C° 0 mm 2 mps 747 mmHg 75%
21:00 +9°C° 0 mm 2 mps 747 mmHg 74%
22:00 +9°C° 0 mm 3 mps 747 mmHg 74%
23:00 +9°C° 0 mm 3 mps 747 mmHg 77%

22 May, Saturday

Time Temperature Precipitation Wind Pressure Humidity
00:00 +8°C° 0 mm 3 mps 747 mmHg 79%
01:00 +8°C° 0 mm 3 mps 746 mmHg 82%
02:00 +8°C° 0 mm 3 mps 746 mmHg 82%
03:00 +8°C° 0 mm 3 mps 746 mmHg 83%
04:00 +8°C° 0 mm 3 mps 746 mmHg 83%
05:00 +9°C° 0 mm 3 mps 746 mmHg 78%
06:00 +11°C° 0 mm 4 mps 746 mmHg 74%
07:00 +12°C° 0 mm 5 mps 745 mmHg 69%
08:00 +14°C° 0 mm 5 mps 745 mmHg 66%
09:00 +15°C° 0 mm 5 mps 745 mmHg 63%
10:00 +16°C° 0 mm 5 mps 745 mmHg 60%
11:00 +17°C° 0 mm 5 mps 745 mmHg 57%
12:00 +19°C° 0 mm 6 mps 745 mmHg 53%
13:00 +20°C° 0 mm 6 mps 744 mmHg 50%
14:00 +20°C° 0 mm 5 mps 744 mmHg 53%
15:00 +20°C° 0 mm 4 mps 744 mmHg 55%
16:00 +20°C° 0 mm 4 mps 743 mmHg 58%
17:00 +18°C° 0.2 mm 4 mps 744 mmHg 66%
18:00 +15°C° 0.2 mm 4 mps 744 mmHg 74%
19:00 +14°C° 0.2 mm 4 mps 744 mmHg 82%
20:00 +13°C° 0.2 mm 3 mps 744 mmHg 86%
21:00 +13°C° 0.2 mm 2 mps 744 mmHg 91%
22:00 +12°C° 0.2 mm 1 mps 744 mmHg 95%
23:00 +12°C° 0 mm 1 mps 744 mmHg 95%

23 May, Sunday

Time Temperature Precipitation Wind Pressure Humidity
00:00 +12°C° 0 mm 1 mps 744 mmHg 95%
01:00 +12°C° 0 mm 1 mps 743 mmHg 94%
02:00 +12°C° 1.3 mm 2 mps 743 mmHg 95%
03:00 +10°C° 1.3 mm 3 mps 743 mmHg 96%
04:00 +10°C° 1.3 mm 4 mps 743 mmHg 97%
05:00 +10°C° 0.9 mm 3 mps 743 mmHg 96%
06:00 +10°C° 0.9 mm 3 mps 744 mmHg 95%
07:00 +10°C° 0.9 mm 3 mps 744 mmHg 94%
08:00 +11°C° 0.1 mm 3 mps 745 mmHg 85%
09:00 +12°C° 0.1 mm 3 mps 745 mmHg 76%
10:00 +14°C° 0.1 mm 3 mps 745 mmHg 67%
11:00 +16°C° 0 mm 3 mps 745 mmHg 61%
12:00 +17°C° 0 mm 3 mps 745 mmHg 54%
13:00 +18°C° 0 mm 3 mps 745 mmHg 48%
14:00 +18°C° 0 mm 2 mps 745 mmHg 53%
15:00 +17°C° 0 mm 2 mps 745 mmHg 57%
16:00 +18°C° 0 mm 1 mps 745 mmHg 62%
17:00 +16°C° 0 mm 1 mps 746 mmHg 64%
18:00 +15°C° 0 mm 1 mps 746 mmHg 67%
19:00 +14°C° 0 mm 1 mps 746 mmHg 69%
20:00 +13°C° 0 mm 1 mps 746 mmHg 70%
21:00 +12°C° 0 mm 1 mps 746 mmHg 72%
22:00 +12°C° 0 mm 1 mps 747 mmHg 73%
23:00 +11°C° 0 mm 1 mps 747 mmHg 75%
Show more